COSMOS 1275 DEB, 12708

Orbit data source: Space-Track

COSMOS 1275 DEB, 12708 is space debris in LEO originally from a launch on Thu, 04 Jun 1981 UTC launched from the Plesetsk Missile And Space Complex (PKMTR). Debris objects in space refer to the collection of defunct objects orbiting the Earth. Examples of debris include non-operational satellites, rocket bodies, and fragments generated from explosions, collisions, or faulty payload assembly.

Loading next visibility...
Identifier
12708, 1981-053BC
Orbit
LEO
Country
Flag of CISCIS
Related business
Manufacturer
Unknown
Mission
Spacecraft
Bus & Motor
Unknown
Mass
Unknown
Launch date (UTC)
1981-06-04 (45 years ago)
Launch vehicle
Unknown
Launch site
Plesetsk Missile And Space Complex (PKMTR)
Object type
Payload
Rocket body
Debris
Shape & HBR
Unknown shape, 0.2 m
Radar Cross Section
Medium (>0.1 m² and <1 m²)

Expand to show TLE details & history
Last TLE update: 16 hours ago

TLE from 16 hours ago
0 COSMOS 1275 DEB
1 12708U 81053BC  26150.23849122  .00016642  00000-0  26071-2 0  9997
2 12708  82.8605  57.8595 0015266 232.7796 127.2022 14.72543814311251
Epoch: 2026-05-30T05:43Z
TLE epoch observation values (Epoch: 2026-05-30T05:43:25.641Z)
Latitude
0.00001°
Longitude
84.24528°
Altitude
662.494 km
Speed
7.523 km/s
True Right ascension
03h 51m 26s
True Declination
0° 00' 00"
Sunlit
Object was in daylight at epoch
Visualization orbit readout
Latitude
Unknown
Longitude
Unknown
Altitude
Unknown
Speed
Unknown
Apparent Right ascension
Unknown
Apparent Declination
Unknown
Sunlit
N/A
Visualization observer readout
Local Sidereal Time
07:01:02
Azimuth
Unknown
Elevation
Unknown
Doppler factor
Unknown
Orbital elements
Apogee altitude
660.707 km
Perigee altitude
639.248 km
Semi-major axis
7,028.114 km
Eccentricity
0.00153
Inclination
82.8605°
RAAN
57.8595°
Arg. of periapsis
232.7796°
True anomaly
127.34138°
Mean anomaly
127.2022°
Eccentric anomaly
127.2718°
Mean motion
3.68371 °/min
Orbital period
97.73 mins
BSTAR
0.0026071
Loading maneuver chart data...
Computing Atmospheric mass density...
Loading historical data...
Loading historical data...
Loading historical data...
Loading historical data...
Loading historical data...
Loading historical data...
Loading historical data...

Documentation

Showing up to 5 results
|